Weather History for Cairns, QU

Change the Weather History Date:

Saturday, October 6, 2012

  Actual Average Record
Temperature  
Mean Temperature 74 °F -  
Max Temperature 79 °F 85 °F 87 °F (2004)
Min Temperature 70 °F 70 °F 32 °F (2006)
Cooling Degree Days 10    
Growing Degree Days 24 (Base 50)    
Moisture  
Dew Point 65 °F    
Average Humidity 72    
Maximum Humidity 88    
Minimum Humidity 48    
Precipitation  
Precipitation 0.01 in 0.07 in - ()
Sea Level Pressure  
Sea Level Pressure 30.00 in    
Wind  
Wind Speed 11 mph ()    
Max Wind Speed 18 mph    
Max Gust Speed -    
Visibility 6.6 miles    
Events Rain    
Averages and records for this station are not official NWS values.
T = Trace of Precipitation, MM = Missing Value Source: Averaged Metar Reports

Daily Weather History Graph

Daily Weather History Graph

Search for Another Location

Airport:

Trip Planner

Search our weather history database for the weather conditions in past years. The results will help you decide how hot, cold, wet, or windy it might be!

Date:

Astronomy

Oct. 06, 2012 Rise Set
Actual Time 5:55 AM EST 6:15 PM EST
Civil Twilight 5:33 AM EST 6:36 PM EST
Nautical Twilight 5:08 AM EST 7:02 PM EST
Astronomical Twilight 4:42 AM EST 7:27 PM EST
Moon 11:17 PM EST (10/6) 9:57 AM EST (10/6)
Length of Visible Light 13h 03m
Length of Day
12h 19m
Waning Gibbous, 71% of the Moon is Illuminated
Oct 6
Waning Gibbous
Oct 8
Last Quarter
Oct 15
New
Oct 22
First Quarter
Oct 30
Full

Hourly Weather History & Observations

Time (EST) Temp. Dew Point Humidity Pressure Visibility Wind Dir Wind Speed Gust Speed Precip Events Conditions
12:00 AM 71 °F 66 °F 78% 30.04 in - South 10.4 mph - -   Overcast
12:00 AM 71.6 °F 66.2 °F 83% 30.04 in 5.6 mi South 10.4 mph - N/A Rain Light Rain Showers
12:30 AM 69.8 °F 66.2 °F 88% 30.01 in 6.2 mi South 12.7 mph - N/A   Mostly Cloudy
1:00 AM 71 °F 66 °F 78% 30.03 in - South 12.7 mph - -  
1:00 AM 71.6 °F 66.2 °F 83% 30.01 in 6.2 mi South 12.7 mph - N/A   Mostly Cloudy
1:30 AM 71.6 °F 66.2 °F 83% 30.01 in 6.2 mi South 10.4 mph - N/A   Overcast
2:00 AM 71.6 °F 66.2 °F 83% 30.01 in 6.2 mi South 11.5 mph - N/A   Mostly Cloudy
2:30 AM 71.6 °F 66.2 °F 83% 29.98 in 6.2 mi South 11.5 mph - N/A   Mostly Cloudy
3:00 AM 72 °F 66 °F 77% 29.99 in - South 11.5 mph - -  
3:00 AM 71.6 °F 66.2 °F 83% 29.98 in 6.2 mi South 11.5 mph - N/A   Mostly Cloudy
3:30 AM 71.6 °F 66.2 °F 83% 29.98 in 6.2 mi South 11.5 mph - N/A   Scattered Clouds
4:00 AM 72 °F 66 °F 77% 29.99 in - South 10.4 mph - -  
4:00 AM 71.6 °F 66.2 °F 83% 29.98 in 6.2 mi South 10.4 mph - N/A   Mostly Cloudy
4:30 AM 71.6 °F 66.2 °F 83% 29.98 in 6.2 mi South 10.4 mph - N/A   Mostly Cloudy
5:00 AM 71.6 °F 66.2 °F 83% 29.98 in 6.2 mi South 10.4 mph - N/A   Scattered Clouds
5:30 AM 71.6 °F 66.2 °F 83% 29.98 in 6.2 mi South 9.2 mph - N/A   Partly Cloudy
6:00 AM 72 °F 66 °F 75% 30.01 in 12 mi South 10.4 mph - -   Partly Cloudy
6:00 AM 71.6 °F 66.2 °F 83% 30.01 in 6.2 mi South 10.4 mph - N/A   Scattered Clouds
6:30 AM 73.4 °F 66.2 °F 78% 30.01 in 6.2 mi South 10.4 mph - N/A   Scattered Clouds
7:00 AM 73 °F 66 °F 72% 30.03 in - South 9.2 mph - -  
7:00 AM 73.4 °F 66.2 °F 78% 30.01 in 6.2 mi South 9.2 mph - N/A   Mostly Cloudy
7:30 AM 73.4 °F 66.2 °F 78% 30.04 in 6.2 mi South 10.4 mph - N/A   Mostly Cloudy
8:00 AM 77.0 °F 66.2 °F 69% 30.04 in 6.2 mi South 9.2 mph - N/A   Scattered Clouds
8:30 AM 77.0 °F 66.2 °F 69% 30.04 in 6.2 mi SSE 11.5 mph - N/A   Scattered Clouds
9:00 AM 76 °F 67 °F 65% 30.05 in 12 mi SSE 9.2 mph - -   Partly Cloudy
9:00 AM 75.2 °F 66.2 °F 73% 30.04 in 6.2 mi SSE 9.2 mph - N/A   Scattered Clouds
9:30 AM 77.0 °F 66.2 °F 69% 30.04 in 6.2 mi South 12.7 mph - N/A   Scattered Clouds
10:00 AM 78 °F 64 °F 53% 30.06 in - SE 13.8 mph - -  
10:00 AM 78.8 °F 64.4 °F 61% 30.04 in 6.2 mi SE 13.8 mph - N/A   Scattered Clouds
10:30 AM 78.8 °F 64.4 °F 61% 30.04 in 6.2 mi SE 15.0 mph - N/A   Mostly Cloudy
11:00 AM 78.8 °F 64.4 °F 61% 30.04 in 6.2 mi SE 15.0 mph - N/A   Mostly Cloudy
11:30 AM 78.8 °F 64.4 °F 61% 30.04 in 6.2 mi SE 13.8 mph - N/A   Mostly Cloudy
12:00 PM 77 °F 65 °F 59% 30.02 in 6 mi SSE 13.8 mph - - Rain Light Drizzle
12:00 PM 77.0 °F 66.2 °F 69% 30.01 in 6.2 mi SSE 13.8 mph - N/A   Light Drizzle
12:30 PM 78.8 °F 64.4 °F 61% 30.01 in 6.2 mi SE 16.1 mph - N/A   Overcast
1:00 PM 78.8 °F 64.4 °F 61% 29.98 in 6.2 mi SE 17.3 mph - N/A   Mostly Cloudy
1:30 PM 78.8 °F 66.2 °F 65% 29.98 in 6.2 mi ESE 13.8 mph - N/A   Mostly Cloudy
2:00 PM 78.8 °F 66.2 °F 65% 29.95 in 6.2 mi ESE 11.5 mph - N/A   Mostly Cloudy
2:30 PM 78.8 °F 64.4 °F 61% 29.95 in 6.2 mi SE 18.4 mph - N/A   Mostly Cloudy
3:00 PM 79 °F 63 °F 49% 29.96 in 16 mi SE 13.8 mph - -   Partly Cloudy
3:00 PM 78.8 °F 62.6 °F 57% 29.95 in 6.2 mi SE 13.8 mph - N/A   Mostly Cloudy
3:30 PM 78.8 °F 62.6 °F 57% 29.95 in 6.2 mi SE 12.7 mph - N/A   Scattered Clouds
4:00 PM 79 °F 63 °F 48% 29.96 in - SE 15.0 mph - -  
4:00 PM 78.8 °F 62.6 °F 57% 29.95 in 6.2 mi SE 15.0 mph - N/A   Mostly Cloudy
4:30 PM 77.0 °F 66.2 °F 69% 29.95 in 6.2 mi SE 13.8 mph - N/A   Mostly Cloudy
5:00 PM 75.2 °F 66.2 °F 73% 29.95 in 6.2 mi SE 17.3 mph - N/A   Mostly Cloudy
5:30 PM 75.2 °F 66.2 °F 73% 29.95 in 6.2 mi SSE 9.2 mph - N/A   Mostly Cloudy
6:00 PM 73 °F 67 °F 76% 29.98 in - SSE 12.7 mph - -   Overcast
6:00 PM 73.4 °F 68.0 °F 83% 29.98 in 6.2 mi SSE 12.7 mph - N/A   Mostly Cloudy
6:30 PM 73.4 °F 68.0 °F 83% 29.98 in 6.2 mi South 8.1 mph - N/A   Mostly Cloudy
7:00 PM 71.6 °F 66.2 °F 83% 29.98 in 6.2 mi South 9.2 mph - N/A   Mostly Cloudy
7:30 PM 73.4 °F 66.2 °F 78% 30.01 in 6.2 mi SSW 8.1 mph - N/A   Partly Cloudy
8:00 PM 73.4 °F 66.2 °F 78% 30.01 in 6.2 mi South 8.1 mph - N/A   Mostly Cloudy
8:30 PM 73.4 °F 66.2 °F 78% 30.01 in 6.2 mi South 8.1 mph - N/A   Overcast
9:00 PM 73 °F 65 °F 69% 30.03 in - South 8.1 mph - -   Overcast
9:00 PM 73.4 °F 64.4 °F 73% 30.01 in 6.2 mi South 8.1 mph - N/A   Overcast
9:30 PM 73.4 °F 64.4 °F 73% 30.04 in 6.2 mi South 9.2 mph - N/A   Overcast
10:00 PM 73 °F 64 °F 67% 30.04 in - South 8.1 mph - -  
10:00 PM 73.4 °F 64.4 °F 73% 30.04 in 6.2 mi South 8.1 mph - N/A   Overcast
10:30 PM 73.4 °F 64.4 °F 73% 30.04 in 6.2 mi South 8.1 mph - N/A   Overcast
11:00 PM 73.4 °F 64.4 °F 73% 30.04 in 6.2 mi South 6.9 mph - N/A   Overcast
11:30 PM 73.4 °F 64.4 °F 73% 30.04 in 6.2 mi South 6.9 mph - N/A   Overcast